BAW96H LWSK-LTFJ

Flight info

Callsign BAW96H
Flight time 1h 4m
Altitude 37000
Route RUGAS2D RUGAS UN128 PEREN UN644 DIGTI UT162 DRAMO DRAMO1G
Aircraft A319/M-SDE2E3FGHIJ1RWXY/S

Departure

Time 2026-04-26 13:02
Airport Skopje International Airport (LWSK)

Arrival

Time 2026-04-26 14:06
Airport Istanbul Sabiha Gökçen International Airport (LTFJ)
Time Latitude Longitude Altitude Speed Heading
2026-04-26 12:32 41.96075 21.62590 784 ft 0 kts 73°
2026-04-26 12:52 41.96074 21.62588 783 ft 2 kts 73°
2026-04-26 12:53 41.96066 21.62556 783 ft 3 kts 73°
2026-04-26 12:53 41.96063 21.62528 783 ft 4 kts 123°
2026-04-26 12:53 41.96081 21.62518 784 ft 4 kts 177°
2026-04-26 12:53 41.96102 21.62515 784 ft 0 kts 165°
2026-04-26 12:56 41.96100 21.62515 784 ft 1 kts 165°
2026-04-26 12:57 41.96091 21.62519 784 ft 3 kts 165°
2026-04-26 12:57 41.96065 21.62528 783 ft 5 kts 165°
2026-04-26 12:57 41.96029 21.62524 783 ft 6 kts 216°
2026-04-26 12:58 41.95958 21.62482 783 ft 7 kts 153°
2026-04-26 12:58 41.95909 21.62502 782 ft 8 kts 166°
2026-04-26 12:58 41.95852 21.62522 782 ft 9 kts 163°
2026-04-26 12:58 41.95787 21.62547 782 ft 10 kts 165°
2026-04-26 12:59 41.95714 21.62572 781 ft 11 kts 165°
2026-04-26 12:59 41.95634 21.62601 781 ft 13 kts 165°
2026-04-26 12:59 41.95546 21.62630 780 ft 14 kts 165°
2026-04-26 12:59 41.95452 21.62662 780 ft 14 kts 166°
2026-04-26 13:00 41.95352 21.62696 779 ft 15 kts 165°
2026-04-26 13:00 41.95245 21.62735 778 ft 16 kts 167°
2026-04-26 13:00 41.95146 21.62702 778 ft 16 kts 234°
2026-04-26 13:00 41.95115 21.62560 780 ft 11 kts 253°
2026-04-26 13:01 41.95127 21.62503 779 ft 6 kts 338°
2026-04-26 13:01 41.95237 21.62464 780 ft 40 kts 345°
2026-04-26 13:01 41.95701 21.62302 780 ft 99 kts 346°
2026-04-26 13:01 41.96552 21.62005 813 ft 148 kts 346°
2026-04-26 13:02 41.97534 21.61648 1367 ft 148 kts 343°
2026-04-26 13:02 41.98562 21.61388 1953 ft 153 kts
2026-04-26 13:02 41.99559 21.62067 2143 ft 178 kts 47°
2026-04-26 13:02 42.00028 21.63684 2335 ft 207 kts 86°
2026-04-26 13:03 41.99625 21.65658 2700 ft 235 kts 121°
2026-04-26 13:03 41.98352 21.67139 3492 ft 247 kts 154°
2026-04-26 13:03 41.96679 21.67595 4273 ft 254 kts 179°
2026-04-26 13:03 41.94911 21.67547 5211 ft 255 kts 183°
2026-04-26 13:04 41.93153 21.67800 6127 ft 256 kts 161°
2026-04-26 13:04 41.91571 21.69061 6583 ft 278 kts 131°
2026-04-26 13:04 41.90399 21.71180 7220 ft 287 kts 122°
2026-04-26 13:04 41.89251 21.73417 8058 ft 294 kts 122°
2026-04-26 13:05 41.88076 21.75685 8925 ft 297 kts 123°
2026-04-26 13:05 41.86883 21.77975 9811 ft 302 kts 123°
2026-04-26 13:05 41.85659 21.80317 10378 ft 316 kts 124°
2026-04-26 13:05 41.84350 21.82819 10616 ft 339 kts 123°
2026-04-26 13:06 41.82955 21.85469 11069 ft 352 kts 124°
2026-04-26 13:06 41.81522 21.88176 11713 ft 358 kts 124°
2026-04-26 13:06 41.80068 21.90917 12403 ft 363 kts 124°
2026-04-26 13:06 41.78597 21.93695 13090 ft 367 kts 124°
2026-04-26 13:07 41.77113 21.96502 13780 ft 371 kts 124°
2026-04-26 13:07 41.75612 21.99337 14380 ft 375 kts 124°
2026-04-26 13:07 41.74093 22.02208 14976 ft 379 kts 124°
2026-04-26 13:07 41.72561 22.05109 15571 ft 383 kts 124°
2026-04-26 13:08 41.71019 22.08030 16187 ft 386 kts 124°
2026-04-26 13:08 41.69459 22.10980 16803 ft 390 kts 124°
2026-04-26 13:08 41.67884 22.13951 17404 ft 394 kts 125°
2026-04-26 13:08 41.66290 22.16958 17988 ft 398 kts 125°
2026-04-26 13:09 41.64681 22.19988 18543 ft 402 kts 125°
2026-04-26 13:09 41.63054 22.23046 19070 ft 405 kts 125°
2026-04-26 13:09 41.61411 22.26131 19584 ft 409 kts 125°
2026-04-26 13:09 41.59754 22.29244 20115 ft 413 kts 125°
2026-04-26 13:10 41.58080 22.32380 20627 ft 417 kts 126°
2026-04-26 13:10 41.56386 22.35550 21135 ft 421 kts 126°
2026-04-26 13:10 41.54674 22.38749 21635 ft 425 kts 126°
2026-04-26 13:10 41.52949 22.41969 22120 ft 429 kts 126°
2026-04-26 13:11 41.51204 22.45223 22598 ft 433 kts 126°
2026-04-26 13:11 41.49443 22.48506 23055 ft 437 kts 126°
2026-04-26 13:11 41.47669 22.51813 23514 ft 441 kts 126°
2026-04-26 13:11 41.45881 22.55152 23901 ft 444 kts 126°
2026-04-26 13:12 41.44077 22.58514 24284 ft 447 kts 126°
2026-04-26 13:12 41.42262 22.61889 24684 ft 450 kts 126°
2026-04-26 13:12 41.40428 22.65284 25076 ft 453 kts 126°
2026-04-26 13:12 41.38585 22.68694 25457 ft 455 kts 126°
2026-04-26 13:13 41.36729 22.72125 25837 ft 458 kts 126°
2026-04-26 13:13 41.34863 22.75574 26221 ft 460 kts 126°
2026-04-26 13:13 41.32824 22.78864 26597 ft 462 kts 137°
2026-04-26 13:13 41.30293 22.81467 26957 ft 461 kts 149°
2026-04-26 13:14 41.27602 22.83808 27346 ft 463 kts 149°
2026-04-26 13:14 41.24895 22.86151 27717 ft 465 kts 149°
2026-04-26 13:14 41.22173 22.88500 28081 ft 468 kts 149°
2026-04-26 13:14 41.19434 22.90864 28425 ft 470 kts 149°
2026-04-26 13:15 41.16685 22.93238 28779 ft 473 kts 149°
2026-04-26 13:15 41.13922 22.95630 29111 ft 476 kts 149°
2026-04-26 13:15 41.11179 22.98109 29424 ft 480 kts 142°
2026-04-26 13:15 41.09531 23.00154 29635 ft 483 kts 133°
2026-04-26 13:16 41.06912 23.04956 30047 ft 487 kts 124°
2026-04-26 13:16 41.05019 23.08696 30305 ft 489 kts 124°
2026-04-26 13:16 41.03119 23.12446 30607 ft 491 kts 124°
2026-04-26 13:16 41.01213 23.16206 30886 ft 493 kts 124°
2026-04-26 13:17 40.97377 23.23733 31558 ft 493 kts 124°
2026-04-26 13:17 40.95456 23.27491 31922 ft 492 kts 124°
2026-04-26 13:18 40.91620 23.34982 32685 ft 491 kts 124°
2026-04-26 13:18 40.89707 23.38718 33041 ft 491 kts 124°
2026-04-26 13:18 40.85877 23.46197 33804 ft 490 kts 124°
2026-04-26 13:19 40.83966 23.49915 34225 ft 488 kts 124°
2026-04-26 13:19 40.82068 23.53596 34768 ft 481 kts 124°
2026-04-26 13:19 40.80194 23.57223 35329 ft 475 kts 124°
2026-04-26 13:19 40.78337 23.60811 35770 ft 472 kts 124°
2026-04-26 13:20 40.76526 23.64415 36147 ft 470 kts 119°
2026-04-26 13:20 40.75261 23.68379 36468 ft 468 kts 103°
2026-04-26 13:20 40.74800 23.72594 36760 ft 463 kts 87°
2026-04-26 13:20 40.75151 23.76773 37035 ft 457 kts 75°
2026-04-26 13:21 40.75809 23.80879 37331 ft 457 kts 75°
2026-04-26 13:21 40.76243 23.83590 37521 ft 456 kts 75°
2026-04-26 13:21 40.77115 23.89063 37897 ft 455 kts 75°
2026-04-26 13:21 40.77760 23.93146 38168 ft 455 kts 75°
2026-04-26 13:22 40.78400 23.97236 38438 ft 454 kts 76°
2026-04-26 13:22 40.79034 24.01317 38680 ft 454 kts 76°
2026-04-26 13:22 40.79664 24.05392 38871 ft 454 kts 76°
2026-04-26 13:23 40.80915 24.13496 39001 ft 443 kts 76°
2026-04-26 13:23 40.82138 24.21405 38994 ft 439 kts 76°
2026-04-26 13:24 40.83354 24.29300 39000 ft 439 kts 76°
2026-04-26 13:24 40.84563 24.37237 39000 ft 443 kts 76°
2026-04-26 13:25 40.85775 24.45225 38982 ft 444 kts 76°
2026-04-26 13:25 40.86989 24.53221 38977 ft 444 kts 76°
2026-04-26 13:26 40.88201 24.61215 38978 ft 444 kts 76°
2026-04-26 13:26 40.89406 24.69215 38979 ft 444 kts 76°
2026-04-26 13:27 40.90603 24.77225 38981 ft 445 kts 76°
2026-04-26 13:27 40.91787 24.85257 38982 ft 445 kts 76°
2026-04-26 13:28 40.92973 24.93300 38984 ft 446 kts 76°
2026-04-26 13:28 40.94151 25.01301 39001 ft 446 kts 76°
2026-04-26 13:29 40.95329 25.09355 39010 ft 446 kts 76°
2026-04-26 13:29 40.96307 25.16107 39014 ft 446 kts 76°
2026-04-26 13:30 40.97472 25.24160 39010 ft 446 kts 76°
2026-04-26 13:30 40.98640 25.32234 39008 ft 447 kts 76°
2026-04-26 13:31 40.99799 25.40318 39009 ft 447 kts 76°
2026-04-26 13:31 41.00951 25.48406 39005 ft 447 kts 76°
2026-04-26 13:32 41.02095 25.56506 39004 ft 447 kts 76°
2026-04-26 13:32 41.03233 25.64601 39006 ft 447 kts 76°
2026-04-26 13:33 41.04369 25.72702 39002 ft 447 kts 77°
2026-04-26 13:33 41.05501 25.80811 38996 ft 448 kts 76°
2026-04-26 13:34 41.06629 25.88931 38987 ft 448 kts 77°
2026-04-26 13:34 41.07757 25.97057 38981 ft 449 kts 77°
2026-04-26 13:35 41.08873 26.05189 38990 ft 448 kts 77°
2026-04-26 13:35 41.09987 26.13325 38989 ft 448 kts 77°
2026-04-26 13:36 41.11090 26.21457 38992 ft 448 kts 77°
2026-04-26 13:36 41.11798 26.29620 38996 ft 451 kts 90°
2026-04-26 13:37 41.10702 26.37813 38980 ft 456 kts 109°
2026-04-26 13:37 41.08290 26.45676 38983 ft 465 kts 112°
2026-04-26 13:38 41.05776 26.53672 38978 ft 475 kts 112°
2026-04-26 13:38 41.03922 26.62050 38977 ft 475 kts 92°
2026-04-26 13:38 41.04027 26.66393 38979 ft 471 kts 78°
2026-04-26 13:39 41.04622 26.70656 38983 ft 471 kts 76°
2026-04-26 13:39 41.05886 26.79178 38985 ft 472 kts 76°
2026-04-26 13:40 41.07178 26.87708 38982 ft 472 kts 76°
2026-04-26 13:40 41.08453 26.96234 38988 ft 472 kts 76°
2026-04-26 13:41 41.09705 27.04715 38984 ft 472 kts 76°
2026-04-26 13:41 41.10972 27.13317 38994 ft 472 kts 76°
2026-04-26 13:42 41.12215 27.21800 38991 ft 472 kts 76°
2026-04-26 13:42 41.13459 27.30409 38994 ft 472 kts 76°
2026-04-26 13:43 41.14679 27.38898 38991 ft 472 kts 76°
2026-04-26 13:43 41.15915 27.47498 38993 ft 471 kts 76°
2026-04-26 13:44 41.17120 27.55992 38997 ft 471 kts 76°
2026-04-26 13:44 41.18330 27.64528 38998 ft 471 kts 77°
2026-04-26 13:45 41.19531 27.73073 38989 ft 471 kts 77°
2026-04-26 13:45 41.20731 27.81625 38878 ft 472 kts 77°
2026-04-26 13:45 41.21331 27.85903 38648 ft 471 kts 77°
2026-04-26 13:46 41.21923 27.90162 38201 ft 469 kts 77°
2026-04-26 13:46 41.22514 27.94429 37633 ft 469 kts 77°
2026-04-26 13:46 41.23106 27.98694 37027 ft 470 kts 77°
2026-04-26 13:46 41.23698 28.02963 36407 ft 470 kts 77°
2026-04-26 13:47 41.24290 28.07251 35629 ft 474 kts 77°
2026-04-26 13:47 41.24884 28.11587 34788 ft 479 kts 77°
2026-04-26 13:47 41.25482 28.15966 33859 ft 485 kts 77°
2026-04-26 13:47 41.26084 28.20381 33040 ft 485 kts 77°
2026-04-26 13:48 41.26689 28.24819 31976 ft 491 kts 77°
2026-04-26 13:48 41.27290 28.29263 31269 ft 487 kts 78°
2026-04-26 13:48 41.27887 28.33711 30336 ft 489 kts 78°
2026-04-26 13:48 41.28485 28.38165 29287 ft 491 kts 78°
2026-04-26 13:49 41.29086 28.42628 27913 ft 488 kts 78°
2026-04-26 13:49 41.29681 28.47045 26945 ft 478 kts 78°
2026-04-26 13:49 41.30247 28.51279 26754 ft 451 kts 78°
2026-04-26 13:49 41.30699 28.55328 26354 ft 436 kts 84°
2026-04-26 13:50 41.30759 28.59336 26106 ft 432 kts 89°
2026-04-26 13:50 41.30764 28.63320 25821 ft 429 kts 89°
2026-04-26 13:50 41.30777 28.67281 25307 ft 427 kts 89°
2026-04-26 13:50 41.30787 28.71222 24841 ft 424 kts 89°
2026-04-26 13:51 41.30791 28.75110 24443 ft 418 kts 89°
2026-04-26 13:51 41.30791 28.78973 23762 ft 420 kts 89°
2026-04-26 13:51 41.30789 28.82907 22767 ft 429 kts 89°
2026-04-26 13:51 41.30786 28.86869 22035 ft 428 kts 89°
2026-04-26 13:52 41.30782 28.90809 21404 ft 425 kts 89°
2026-04-26 13:52 41.30779 28.94720 20810 ft 421 kts 89°
2026-04-26 13:52 41.30786 28.98597 20246 ft 418 kts 89°
2026-04-26 13:52 41.30800 29.02439 19629 ft 412 kts 89°
2026-04-26 13:53 41.30816 29.06218 18768 ft 407 kts 88°
2026-04-26 13:53 41.30829 29.09956 17930 ft 401 kts 89°
2026-04-26 13:53 41.30839 29.13573 17522 ft 382 kts 89°
2026-04-26 13:53 41.30844 29.17056 16803 ft 373 kts 89°
2026-04-26 13:54 41.30847 29.20440 16037 ft 368 kts 89°
2026-04-26 13:54 41.30848 29.23762 15819 ft 348 kts 89°
2026-04-26 13:54 41.30849 29.26904 15490 ft 334 kts 88°
2026-04-26 13:55 41.30854 29.32988 14401 ft 326 kts 88°
2026-04-26 13:55 41.30857 29.34979 14024 ft 324 kts 88°
2026-04-26 13:55 41.31227 29.41841 12618 ft 314 kts 72°
2026-04-26 13:56 41.31571 29.44689 11986 ft 314 kts 94°
2026-04-26 13:56 41.30884 29.47395 11417 ft 309 kts 126°
2026-04-26 13:56 41.29411 29.49427 10826 ft 304 kts 147°
2026-04-26 13:56 41.27610 29.50848 10250 ft 301 kts 154°
2026-04-26 13:57 41.25799 29.52225 9697 ft 299 kts 153°
2026-04-26 13:57 41.24054 29.53620 9470 ft 284 kts 152°
2026-04-26 13:57 41.22423 29.54948 9300 ft 269 kts 152°
2026-04-26 13:57 41.20845 29.56225 8947 ft 262 kts 152°
2026-04-26 13:58 41.19265 29.57490 8822 ft 277 kts 152°
2026-04-26 13:58 41.17550 29.58845 8552 ft 293 kts 152°
2026-04-26 13:58 41.15790 29.60231 8086 ft 295 kts 152°
2026-04-26 13:58 41.14013 29.61628 7667 ft 297 kts 152°
2026-04-26 13:59 41.12243 29.63020 7214 ft 298 kts 152°
2026-04-26 13:59 41.10480 29.64410 6788 ft 291 kts 152°
2026-04-26 13:59 41.08753 29.65771 6378 ft 283 kts 152°
2026-04-26 14:00 41.03782 29.67155 5912 ft 247 kts 213°
2026-04-26 14:00 41.02596 29.65687 5781 ft 233 kts 240°
2026-04-26 14:00 41.02091 29.64415 5701 ft 231 kts 246°
2026-04-26 14:01 41.01194 29.61918 5526 ft 220 kts 246°
2026-04-26 14:01 41.00550 29.60141 5388 ft 207 kts 246°
2026-04-26 14:01 40.99928 29.58436 5164 ft 205 kts 246°
2026-04-26 14:01 40.99314 29.56749 4872 ft 203 kts 246°
2026-04-26 14:02 40.98700 29.55067 4565 ft 202 kts 246°
2026-04-26 14:02 40.98092 29.53399 4238 ft 201 kts 246°
2026-04-26 14:02 40.97485 29.51737 3935 ft 200 kts 246°
2026-04-26 14:02 40.96886 29.50098 3655 ft 196 kts 246°
2026-04-26 14:03 40.96297 29.48489 3339 ft 191 kts 246°
2026-04-26 14:03 40.95733 29.46947 3044 ft 180 kts 246°
2026-04-26 14:03 40.95194 29.45476 2770 ft 175 kts 246°
2026-04-26 14:03 40.94674 29.44054 2504 ft 171 kts 246°
2026-04-26 14:04 40.94157 29.42644 2252 ft 165 kts 247°
2026-04-26 14:04 40.93681 29.41346 2002 ft 153 kts 246°
2026-04-26 14:04 40.93220 29.40088 1777 ft 150 kts 246°
2026-04-26 14:04 40.92772 29.38868 1525 ft 140 kts 246°
2026-04-26 14:05 40.92362 29.37753 1305 ft 131 kts 246°
2026-04-26 14:05 40.91975 29.36691 1098 ft 127 kts 244°
2026-04-26 14:05 40.91588 29.35643 948 ft 129 kts 244°
2026-04-26 14:05 40.91200 29.34574 773 ft 128 kts 243°
2026-04-26 14:06 40.90811 29.33519 552 ft 127 kts 243°
2026-04-26 14:06 40.90424 29.32472 373 ft 126 kts 243°
2026-04-26 14:06 40.90066 29.31508 315 ft 100 kts 244°
2026-04-26 14:06 40.89894 29.31025 316 ft 29 kts 248°
2026-04-26 14:07 40.89816 29.30773 318 ft 27 kts 254°
2026-04-26 14:07 40.89816 29.30575 318 ft 21 kts 274°
2026-04-26 14:07 40.89837 29.30446 317 ft 12 kts 308°
2026-04-26 14:07 40.89891 29.30460 317 ft 9 kts 50°
2026-04-26 14:08 40.89920 29.30527 317 ft 5 kts 63°
2026-04-26 14:08 40.89939 29.30578 317 ft 7 kts 64°
2026-04-26 14:08 40.89961 29.30639 317 ft 7 kts 65°
2026-04-26 14:08 40.89985 29.30701 317 ft 8 kts 63°
2026-04-26 14:09 40.90009 29.30767 317 ft 8 kts 63°
2026-04-26 14:09 40.90031 29.30828 317 ft 8 kts 64°
2026-04-26 14:09 40.90049 29.30877 316 ft 6 kts 65°
2026-04-26 14:09 40.90071 29.30936 317 ft 8 kts 63°
2026-04-26 14:10 40.90097 29.31007 317 ft 9 kts 64°
2026-04-26 14:10 40.90125 29.31083 318 ft 9 kts 65°
2026-04-26 14:10 40.90148 29.31149 316 ft 7 kts 65°
2026-04-26 14:10 40.90171 29.31211 317 ft 9 kts 64°
2026-04-26 14:11 40.90236 29.31391 318 ft 10 kts 63°
2026-04-26 14:11 40.90268 29.31468 317 ft 9 kts 54°
2026-04-26 14:11 40.90315 29.31495 318 ft 7 kts 352°
2026-04-26 14:12 40.90357 29.31475 318 ft 6 kts 333°
2026-04-26 14:12 40.90391 29.31453 318 ft 5 kts 335°
2026-04-26 14:12 40.90428 29.31436 318 ft 7 kts 357°
2026-04-26 14:12 40.90469 29.31494 318 ft 10 kts 63°
2026-04-26 14:13 40.90534 29.31671 318 ft 10 kts 63°
2026-04-26 14:13 40.90576 29.31712 318 ft 7 kts 359°
2026-04-26 14:13 40.90606 29.31691 318 ft 4 kts 326°
2026-04-26 14:14 40.90629 29.31677 318 ft 3 kts 335°
2026-04-26 14:14 40.90643 29.31668 318 ft 1 kts 335°
2026-04-26 14:14 40.90647 29.31666 318 ft 0 kts 335°